Time,TemperatureF,DewpointF,PressureIn,WindDirection,WindDirectionDegrees,WindSpeedMPH,WindSpeedGustMPH,Humidity,HourlyPrecipIn,Conditions,Clouds,dailyrainin,SoftwareType,DateUTC
2013-01-16 00:00:00,26.4,20.8,30.16,West,270,0.0,-999.0,79,-99.99,,,0.00,Acu-Link.com,2013-01-16 06:00:00,
2013-01-16 00:15:00,25.7,20.7,30.16,NNE,22,0.0,-999.0,81,-99.99,,,0.00,Acu-Link.com,2013-01-16 06:15:00,
2013-01-16 00:30:00,25.0,19.7,30.16,NNW,337,0.0,-999.0,80,-99.99,,,0.00,Acu-Link.com,2013-01-16 06:30:00,
2013-01-16 00:46:00,23.9,20.1,30.17,ENE,67,0.0,-999.0,85,-99.99,,,0.00,Acu-Link.com,2013-01-16 06:46:00,
2013-01-16 01:01:00,22.8,20.6,30.17,ESE,112,0.0,-999.0,91,-99.99,,,0.00,Acu-Link.com,2013-01-16 07:01:00,
2013-01-16 01:16:00,22.1,20.1,30.17,West,270,0.0,-999.0,92,-99.99,,,0.00,Acu-Link.com,2013-01-16 07:16:00,
2013-01-16 01:31:00,21.7,19.8,30.17,SW,225,0.0,-999.0,92,-99.99,,,0.00,Acu-Link.com,2013-01-16 07:31:00,
2013-01-16 01:46:00,21.4,20.9,30.17,West,270,0.0,-999.0,98,-99.99,,,0.00,Acu-Link.com,2013-01-16 07:46:00,
2013-01-16 02:02:00,23.2,21.2,30.17,West,270,0.0,-999.0,92,-99.99,,,0.00,Acu-Link.com,2013-01-16 08:02:00,
2013-01-16 02:17:00,24.4,21.4,30.17,West,270,0.0,-999.0,88,-99.99,,,0.00,Acu-Link.com,2013-01-16 08:17:00,
2013-01-16 02:32:00,25.2,21.6,30.17,WNW,292,0.0,-999.0,86,-99.99,,,0.00,Acu-Link.com,2013-01-16 08:32:00,
2013-01-16 02:47:00,25.0,21.1,30.18,WNW,292,0.0,-999.0,85,-99.99,,,0.00,Acu-Link.com,2013-01-16 08:47:00,
2013-01-16 03:22:00,24.1,20.8,30.18,West,270,1.1,-999.0,87,-99.99,,,0.00,Acu-Link.com,2013-01-16 09:22:00,
2013-01-16 03:37:00,24.3,21.0,30.18,WNW,292,0.0,-999.0,87,-99.99,,,0.00,Acu-Link.com,2013-01-16 09:37:00,
2013-01-16 03:52:00,24.3,20.7,30.19,NNW,337,0.0,-999.0,86,-99.99,,,0.00,Acu-Link.com,2013-01-16 09:52:00,
2013-01-16 04:08:00,23.9,20.3,30.19,North,0,0.0,-999.0,86,-99.99,,,0.00,Acu-Link.com,2013-01-16 10:08:00,
2013-01-16 04:23:00,22.8,20.1,30.19,NNE,22,0.0,-999.0,89,-99.99,,,0.00,Acu-Link.com,2013-01-16 10:23:00,
2013-01-16 04:38:00,22.8,20.9,30.18,North,0,0.0,-999.0,92,-99.99,,,0.00,Acu-Link.com,2013-01-16 10:38:00,
2013-01-16 04:53:00,20.1,19.2,30.18,WSW,247,0.0,-999.0,96,-99.99,,,0.00,Acu-Link.com,2013-01-16 10:53:00,
2013-01-16 05:08:00,20.3,19.6,30.18,WSW,247,0.0,-999.0,97,-99.99,,,0.00,Acu-Link.com,2013-01-16 11:08:00,
2013-01-16 05:24:00,19.2,18.7,30.19,WSW,247,0.0,-999.0,98,-99.99,,,0.00,Acu-Link.com,2013-01-16 11:24:00,
2013-01-16 05:39:00,18.9,18.4,30.19,WSW,247,0.0,-999.0,98,-99.99,,,0.00,Acu-Link.com,2013-01-16 11:39:00,
2013-01-16 05:54:00,18.7,18.2,30.19,SW,225,0.0,-999.0,98,-99.99,,,0.00,Acu-Link.com,2013-01-16 11:54:00,
2013-01-16 06:09:00,18.1,17.7,30.20,East,90,0.0,-999.0,98,-99.99,,,0.00,Acu-Link.com,2013-01-16 12:09:00,
2013-01-16 06:24:00,17.2,16.8,30.19,West,270,0.0,-999.0,98,-99.99,,,0.00,Acu-Link.com,2013-01-16 12:24:00,
2013-01-16 06:40:00,16.9,16.4,30.19,West,270,0.0,-999.0,98,-99.99,,,0.00,Acu-Link.com,2013-01-16 12:40:00,
2013-01-16 06:55:00,16.5,16.1,30.19,South,180,0.0,-999.0,98,-99.99,,,0.00,Acu-Link.com,2013-01-16 12:55:00,
2013-01-16 07:10:00,16.0,15.5,30.19,West,270,0.0,-999.0,98,-99.99,,,0.00,Acu-Link.com,2013-01-16 13:10:00,
2013-01-16 07:25:00,15.6,15.2,30.20,West,270,0.0,-999.0,98,-99.99,,,0.00,Acu-Link.com,2013-01-16 13:25:00,
2013-01-16 07:41:00,15.4,15.0,30.20,West,270,0.0,-999.0,98,-99.99,,,0.00,Acu-Link.com,2013-01-16 13:41:00,
2013-01-16 07:56:00,15.3,14.8,30.21,East,90,0.0,-999.0,98,-99.99,,,0.00,Acu-Link.com,2013-01-16 13:56:00,
2013-01-16 08:11:00,16.0,15.5,30.21,East,90,0.0,-999.0,98,-99.99,,,0.00,Acu-Link.com,2013-01-16 14:11:00,
2013-01-16 08:26:00,16.9,16.4,30.22,East,90,0.0,-999.0,98,-99.99,,,0.00,Acu-Link.com,2013-01-16 14:26:00,
2013-01-16 08:41:00,19.4,18.9,30.22,East,90,0.0,-999.0,98,-99.99,,,0.00,Acu-Link.com,2013-01-16 14:41:00,
2013-01-16 08:57:00,22.1,21.1,30.22,East,90,0.0,-999.0,96,-99.99,,,0.00,Acu-Link.com,2013-01-16 14:57:00,
2013-01-16 09:12:00,24.3,23.8,30.22,SE,135,0.0,-999.0,98,-99.99,,,0.00,Acu-Link.com,2013-01-16 15:12:00,
2013-01-16 09:27:00,27.3,26.8,30.22,SSW,202,0.0,-999.0,98,-99.99,,,0.00,Acu-Link.com,2013-01-16 15:27:00,
2013-01-16 09:42:00,31.5,24.1,30.21,West,270,3.1,-999.0,74,-99.99,,,0.00,Acu-Link.com,2013-01-16 15:42:00,
2013-01-16 09:57:00,34.2,24.4,30.20,West,270,2.2,-999.0,67,-99.99,,,0.00,Acu-Link.com,2013-01-16 15:57:00,
2013-01-16 10:13:00,35.6,25.4,30.21,South,180,3.8,-999.0,66,-99.99,,,0.00,Acu-Link.com,2013-01-16 16:13:00,
2013-01-16 10:28:00,36.7,25.7,30.21,SW,225,3.1,-999.0,64,-99.99,,,0.00,Acu-Link.com,2013-01-16 16:28:00,
2013-01-16 10:43:00,37.9,26.1,30.20,SSW,202,6.7,-999.0,62,-99.99,,,0.00,Acu-Link.com,2013-01-16 16:43:00,
2013-01-16 10:58:00,39.7,27.0,30.19,West,270,4.7,-999.0,60,-99.99,,,0.00,Acu-Link.com,2013-01-16 16:58:00,
2013-01-16 11:13:00,41.4,26.4,30.18,SW,225,4.7,-999.0,55,-99.99,,,0.00,Acu-Link.com,2013-01-16 17:13:00,
2013-01-16 11:28:00,42.8,26.4,30.18,South,180,3.8,-999.0,52,-99.99,,,0.00,Acu-Link.com,2013-01-16 17:28:00,
2013-01-16 11:44:00,43.2,25.8,30.17,SW,225,4.7,-999.0,50,-99.99,,,0.00,Acu-Link.com,2013-01-16 17:44:00,
2013-01-16 11:59:00,44.4,26.5,30.16,WSW,247,6.7,-999.0,49,-99.99,,,0.00,Acu-Link.com,2013-01-16 17:59:00,
2013-01-16 12:14:00,46.8,25.5,30.15,West,270,5.8,-999.0,43,-99.99,,,0.00,Acu-Link.com,2013-01-16 18:14:00,
2013-01-16 12:29:00,46.4,25.1,30.14,SW,225,4.7,-999.0,43,-99.99,,,0.00,Acu-Link.com,2013-01-16 18:29:00,
2013-01-16 12:45:00,47.5,24.4,30.14,WSW,247,5.8,-999.0,40,-99.99,,,0.00,Acu-Link.com,2013-01-16 18:45:00,
2013-01-16 13:00:00,48.0,24.9,30.13,West,270,4.7,-999.0,40,-99.99,,,0.00,Acu-Link.com,2013-01-16 19:00:00,
2013-01-16 13:15:00,47.8,20.1,30.12,SW,225,6.7,-999.0,33,-99.99,,,0.00,Acu-Link.com,2013-01-16 19:15:00,
2013-01-16 13:30:00,48.7,23.0,30.11,SSW,202,7.8,-999.0,36,-99.99,,,0.00,Acu-Link.com,2013-01-16 19:30:00,
2013-01-16 13:45:00,49.5,23.0,30.11,SSW,202,6.3,-999.0,35,-99.99,,,0.00,Acu-Link.com,2013-01-16 19:45:00,
2013-01-16 14:01:00,50.0,22.0,30.10,NW,315,2.7,-999.0,33,-99.99,,,0.00,Acu-Link.com,2013-01-16 20:01:00,
2013-01-16 14:16:00,49.5,22.3,30.09,West,270,5.1,-999.0,34,-99.99,,,0.00,Acu-Link.com,2013-01-16 20:16:00,
2013-01-16 14:31:00,49.5,23.0,30.09,WSW,247,7.8,-999.0,35,-99.99,,,0.00,Acu-Link.com,2013-01-16 20:31:00,
2013-01-16 14:46:00,50.2,22.9,30.08,WSW,247,7.8,-999.0,34,-99.99,,,0.00,Acu-Link.com,2013-01-16 20:46:00,
2013-01-16 15:01:00,50.5,24.6,30.08,SW,225,5.8,-999.0,36,-99.99,,,0.00,Acu-Link.com,2013-01-16 21:01:00,
2013-01-16 15:17:00,50.4,23.8,30.08,SW,225,11.0,-999.0,35,-99.99,,,0.00,Acu-Link.com,2013-01-16 21:17:00,
2013-01-16 15:32:00,50.5,24.6,30.08,SW,225,8.9,-999.0,36,-99.99,,,0.00,Acu-Link.com,2013-01-16 21:32:00,
2013-01-16 15:47:00,50.9,24.9,30.08,West,270,2.2,-999.0,36,-99.99,,,0.00,Acu-Link.com,2013-01-16 21:47:00,
2013-01-16 16:02:00,51.4,24.7,30.08,SW,225,7.8,-999.0,35,-99.99,,,0.00,Acu-Link.com,2013-01-16 22:02:00,
2013-01-16 16:17:00,51.3,23.9,30.07,North,0,3.1,-999.0,34,-99.99,,,0.00,Acu-Link.com,2013-01-16 22:17:00,
2013-01-16 16:33:00,51.4,24.7,30.08,West,270,4.3,-999.0,35,-99.99,,,0.00,Acu-Link.com,2013-01-16 22:33:00,
2013-01-16 16:48:00,51.8,25.0,30.08,WNW,292,3.8,-999.0,35,-99.99,,,0.00,Acu-Link.com,2013-01-16 22:48:00,
2013-01-16 17:03:00,51.4,26.0,30.08,NNW,337,5.8,-999.0,37,-99.99,,,0.00,Acu-Link.com,2013-01-16 23:03:00,
2013-01-16 17:18:00,50.0,26.6,30.09,West,270,2.7,-999.0,40,-99.99,,,0.00,Acu-Link.com,2013-01-16 23:18:00,
2013-01-16 17:34:00,49.6,27.5,30.10,West,270,3.1,-999.0,42,-99.99,,,0.00,Acu-Link.com,2013-01-16 23:34:00,
2013-01-16 17:49:00,48.7,27.3,30.10,West,270,1.6,-999.0,43,-99.99,,,0.00,Acu-Link.com,2013-01-16 23:49:00,
2013-01-16 18:04:00,46.4,27.3,30.11,West,270,0.0,-999.0,47,-99.99,,,0.00,Acu-Link.com,2013-01-17 00:04:00,
2013-01-16 18:19:00,44.6,27.1,30.11,WNW,292,0.0,-999.0,50,-99.99,,,0.00,Acu-Link.com,2013-01-17 00:19:00,
2013-01-16 18:34:00,42.3,25.9,30.11,SW,225,0.0,-999.0,52,-99.99,,,0.00,Acu-Link.com,2013-01-17 00:34:00,
2013-01-16 18:35:00,42.3,25.9,30.11,SW,225,0.0,-999.0,52,-99.99,,,0.00,Acu-Link.com,2013-01-17 00:35:00,
2013-01-16 18:50:00,40.1,25.7,30.12,ESE,112,0.0,-999.0,56,-99.99,,,0.00,Acu-Link.com,2013-01-17 00:50:00,
2013-01-16 19:05:00,37.8,25.9,30.12,SSE,157,0.0,-999.0,62,-99.99,,,0.00,Acu-Link.com,2013-01-17 01:05:00,
2013-01-16 19:20:00,35.8,24.1,30.12,SW,225,0.0,-999.0,62,-99.99,,,0.00,Acu-Link.com,2013-01-17 01:20:00,
2013-01-16 19:35:00,34.2,24.0,30.12,NW,315,0.0,-999.0,66,-99.99,,,0.00,Acu-Link.com,2013-01-17 01:35:00,
2013-01-16 19:51:00,32.7,24.4,30.13,NNW,337,0.0,-999.0,71,-99.99,,,0.00,Acu-Link.com,2013-01-17 01:51:00,
2013-01-16 20:06:00,32.4,25.3,30.13,North,0,0.0,-999.0,75,-99.99,,,0.00,Acu-Link.com,2013-01-17 02:06:00,
2013-01-16 20:21:00,31.8,25.4,30.14,SW,225,0.0,-999.0,77,-99.99,,,0.00,Acu-Link.com,2013-01-17 02:21:00,
2013-01-16 20:36:00,32.0,26.2,30.15,NNW,337,0.0,-999.0,79,-99.99,,,0.00,Acu-Link.com,2013-01-17 02:36:00,
2013-01-16 20:51:00,31.5,26.0,30.15,West,270,0.0,-999.0,80,-99.99,,,0.00,Acu-Link.com,2013-01-17 02:51:00,
2013-01-16 21:07:00,30.6,25.4,30.16,NE,45,0.0,-999.0,81,-99.99,,,0.00,Acu-Link.com,2013-01-17 03:07:00,
2013-01-16 21:22:00,29.7,25.4,30.17,NE,45,0.0,-999.0,84,-99.99,,,0.00,Acu-Link.com,2013-01-17 03:22:00,
2013-01-16 21:37:00,29.3,25.9,30.17,NE,45,0.0,-999.0,87,-99.99,,,0.00,Acu-Link.com,2013-01-17 03:37:00,
2013-01-16 21:52:00,29.5,27.7,30.18,NW,315,0.0,-999.0,93,-99.99,,,0.00,Acu-Link.com,2013-01-17 03:52:00,
2013-01-16 22:07:00,28.4,26.4,30.18,NNE,22,0.0,-999.0,92,-99.99,,,0.00,Acu-Link.com,2013-01-17 04:07:00,
2013-01-16 22:23:00,28.4,27.4,30.18,North,0,0.0,-999.0,96,-99.99,,,0.00,Acu-Link.com,2013-01-17 04:23:00,
2013-01-16 22:38:00,28.0,26.8,30.18,NNW,337,0.0,-999.0,95,-99.99,,,0.00,Acu-Link.com,2013-01-17 04:38:00,
2013-01-16 22:53:00,28.4,27.7,30.18,NE,45,0.0,-999.0,97,-99.99,,,0.00,Acu-Link.com,2013-01-17 04:53:00,
2013-01-16 23:08:00,28.9,26.9,30.18,North,0,0.0,-999.0,92,-99.99,,,0.00,Acu-Link.com,2013-01-17 05:08:00,
2013-01-16 23:23:00,28.2,27.2,30.19,North,0,0.0,-999.0,96,-99.99,,,0.00,Acu-Link.com,2013-01-17 05:23:00,
2013-01-16 23:38:00,28.0,27.0,30.19,NE,45,0.0,-999.0,96,-99.99,,,0.00,Acu-Link.com,2013-01-17 05:38:00,
2013-01-16 23:54:00,27.7,26.7,30.20,NE,45,0.0,-999.0,96,-99.99,,,0.00,Acu-Link.com,2013-01-17 05:54:00,